Regional Weather Roundup
Issued by NWS

Home | Current Version | Previous Version | Text Only | Print | Product List | Glossary On
Versions: 1 2 3 4 5 6 7 8 9 10 11 12 13 14 15 16 17 18 19 20 21 22 23 24 25 26 27 28 29 30 31 32 33 34 35 36 37 38 39 40 41 42 43 44
000
ASUS46 KPQR 280510
RWROR

OREGON REGIONAL WEATHER ROUNDUP
NATIONAL WEATHER SERVICE PORTLAND OR
900 PM PST SAT DEC 27 2014

NOTE: "FAIR" INDICATES FEW OR NO CLOUDS BELOW 12,000 FEET WITH
NO SIGNIFICANT WEATHER AND/OR OBSTRUCTIONS TO VISIBILITY.

ORZ001>013-280600-
NORTHWEST OREGON


CITY           SKY/WX    TMP DP  RH WIND       PRES   REMARKS
ASTORIA        CLOUDY    49  42  77 W15G21    30.17S
NEWPORT        MOCLDY    48  46  93 NW10G17   30.30R
PORTLAND       PTCLDY    43  39  86 SW7       30.20F
VANCOUVER WA   CLEAR     43  37  79 CALM      30.20S
SCAPPOOSE      CLEAR     42  36  79 N5        30.18S
HILLSBORO      PTCLDY    42  42 100 SW6       30.20S
AURORA         PTCLDY    42  41  96 S6        30.23R
MCMINNVILLE    CLEAR     43  40  89 SW8       30.23R
SALEM          CLOUDY    44  42  93 S7        30.23S
CORVALLIS      CLOUDY    46  43  87 S7        30.26S
EUGENE         CLOUDY    44  42  93 S7        30.27F
$$

ORZ021-028-280600-
SOUTHWEST OREGON


CITY           SKY/WX    TMP DP  RH WIND       PRES   REMARKS
NORTH BEND     CLOUDY    52  50  93 CALM      30.34R
BROOKINGS      CLOUDY    46  43  90 CALM      30.38R
ROSEBURG       CLOUDY    45  42  89 SE3       30.32S
SEXTON SUMMIT  CLOUDY    33  32  96 SW8       30.26S WCI  26
MEDFORD        CLOUDY    40  36  86 CALM      30.35S
$$

ORZ014>016-041-280600-
COLUMBIA GORGE


CITY           SKY/WX    TMP DP  RH WIND       PRES   REMARKS
TROUTDALE      PTCLDY    44  40  85 S5        30.20S
THE DALLES     CLEAR     45  32  60 NW16G25   30.10R
$$

ORZ029>031-041-044-049-050-061>064-502-503-505>511-280600-
EASTERN OREGON


CITY           SKY/WX    TMP DP  RH WIND       PRES   REMARKS
REDMOND        CLOUDY    36  30  79 N7        30.10R WCI  30
BEND           PTCLDY    37  30  75 N6        30.11R WCI  33
PRINEVILLE     CLOUDY    39  32  75 W12       30.11R WCI  32
KLAMATH FALLS  CLOUDY   N/A N/A N/A W18       30.24S
LAKEVIEW       CLOUDY    34  25  69 SE7       30.23S WCI  28
HERMISTON      PTCLDY    45  36  70 SW18G35   30.03S
PENDLETON      MOCLDY    42  35  76 W26G35    30.01F
JOHN DAY       LGT SNOW  32  30  94 NE3       30.07S
MEACHAM        LGT SNOW  35  32  88 VRB7      29.98R FOG     WCI  29
LA GRANDE      CLOUDY    34  21  60 S10       30.01F WCI  26
BAKER CITY     SNOW      25  24  96 CALM      30.07R VSB 1/2
BURNS          CLOUDY    29  25  85 CALM      30.10F
ROME             N/A     34  23  64 S8        30.12S WCI  27
ONTARIO        LGT SNOW  32  29  88 SE12      30.17F FOG     WCI  23
$$



USA.gov is the U.S. government's official web portal to all federal, state and local government web resources and services.